Meath Environmental Platform

Observations

Time Sensor AQI SAQ Temp °C Hum % Pres Pa CO μg/m³ H₂S μg/m³ NO μg/m³ NO₂ μg/m³ O₃ μg/m³ SO₂ μg/m³ CO₂e PPM VOC PPM PM1 μg/m³ PM2.5 μg/m³ PM4 μg/m³ PM10 μg/m³ TPS µm
Tuesday 11 August 2026
02:24 Trim Patrick St 1 12.3 76 38,460 0.29 5.28 3.95 30.73 11.84 0 2.86 5.51 6.07
02:23 Trim Patrick St 1 12.3 75 38,460 0.3 6.06 3.94 34.79 11.13 0 3.71 7.66 8.42
02:22 Trim Patrick St 1 12.3 75 38,460 0.29 5.44 3.95 32.53 10.39 0 2.86 6.95 7.64
02:21 Trim Market St 2 13.9 67 57,031 0.29 0 3.32 15.93 40.53 0 2.14 3.69 5.6
02:21 Trim Patrick St 1 12.3 75 38,460 0.28 5.44 3.94 31.61 11.52 0 2.86 6.95 7.65
02:20 Trim Patrick St 1 12.3 75 38,460 0.29 5.36 3.94 32.96 12.13 0 2.86 6.25 6.88
02:18 Trim Market St 2 14 67 57,112 0.28 0 3.33 15.82 39.81 0 0.71 2.22 4.3
02:18 Trim Patrick St 1 12.3 75 38,460 0.29 5.7 3.94 34.31 11.9 0 2.86 6.97 7.66
02:17 Trim Patrick St 1 12.3 75 38,460 0.29 5.47 3.94 33.39 12.19 0 2.86 5.55 6.11
02:16 Trim Patrick St 1 12.3 75 38,460 0.28 5.47 3.94 31.57 12.42 0 2.86 6.27 6.9
02:15 Trim Market St 2 14 66 57,195 0.28 0 3.22 15.75 41.39 0 2.14 3.71 5.59
02:15 Trim Patrick St 1 12.3 75 38,460 0.29 5.41 3.94 33.39 11.17 0 3.71 7.69 8.46
02:12 Trim Patrick St 1 12.4 74 38,460 0.28 3.86 3.91 23.09 14.79 0 2.86 6.29 6.92
02:10 Trim Patrick St 1 12.4 74 38,460 0.28 6.22 3.91 36.41 9.63 0 2 5.59 6.14
02:09 Trim Market St 2 14.1 66 57,360 0.28 0 2.48 15.57 36.74 0 1.43 2.75 5.58
02:09 Trim Patrick St 1 12.4 74 38,460 0.28 5.91 3.91 35.95 10.86 0 2.86 7.02 7.72
02:08 Trim Patrick St 1 12.5 74 38,460 0.28 5.39 3.89 33.17 10.25 0 2.86 7.02 7.73
02:06 Trim Market St 2 14.2 66 57,398 0.27 0 2.49 13.51 39.09 0 1.43 2.76 4.27
02:06 Trim Patrick St 1 12.5 74 38,460 0.28 5.21 3.88 31.79 9.91 0 2.86 6.32 6.96
02:05 Trim Market St 2 14.2 66 57,413 0.27 0 2.48 14.58 37.3 0 1.43 2.76 4.27